Powrót do katalogu

STARLINK-3387

AktywnyŁącznośćVLEO
NORAD 51125·PAYLOAD·🇺🇸 United States

Wystrzelony Jan 19, 2022 z Cape Canaveral Space Force Station

Loading…

Następne Przeloty (najbliższe 24 godziny)

TLE

ŚwieżeSource: CelesTrak SupGP

Epoka: Sep 15, 2026, 01:10 UTC

1 51125C 22005X   26258.04909722 -.00011586  00000+0 -33157-3 0  2581
2 51125  53.1576 155.5151 0001179  76.4514 348.6338 15.35395520    15

Śledź STARLINK-3387 w czasie rzeczywistym z AllMySat

Download on the App Store